Location: G�ppingen
(48.7089°N, 9.6563°E)
Time: 00:09:55
(UTC+01:00)

UKube-1 - Visible Passes

Search period start: 21 March 2019 00:00
Search period end: 31 March 2019 00:00
Orbit: 613 x 620 km, 98.4° (Epoch: 20 March)

Date Brightness Start Highest point End Pass type
(mag) Time Alt. Az. Time Alt. Az. Time Alt. Az.
21 Mar ? 03:24:03 38° N 03:24:03 38° N 03:26:49 10° N visible
21 Mar ? 05:01:08 11° WNW 05:01:08 11° WNW 05:01:27 10° NW visible
22 Mar ? 02:03:07 13° ENE 02:03:23 13° ENE 02:05:23 10° NNE visible
22 Mar ? 03:40:12 42° NNW 03:40:12 42° NNW 03:43:05 10° NNW visible
23 Mar ? 02:19:15 18° ENE 02:19:25 18° ENE 02:22:17 10° NNE visible
23 Mar ? 03:56:20 40° NW 03:56:20 40° NW 03:59:16 10° NNW visible
24 Mar ? 02:35:23 24° ENE 02:35:30 24° ENE 02:38:56 10° N visible
24 Mar ? 04:12:28 34° WNW 04:12:28 34° WNW 04:15:23 10° NNW visible
25 Mar ? 02:51:31 32° ENE 02:51:36 32° ENE 02:55:26 10° N visible
25 Mar ? 04:28:35 27° WNW 04:28:35 27° WNW 04:31:23 10° NW visible
26 Mar ? 03:07:39 44° ENE 03:07:44 45° ENE 03:11:51 10° N visible
26 Mar ? 04:44:43 20° WNW 04:44:43 20° WNW 04:47:15 10° NW visible
27 Mar ? 03:23:46 64° E 03:23:54 64° ENE 03:28:10 10° N visible
27 Mar ? 05:00:50 15° W 05:00:50 15° W 05:02:50 10° NW visible
28 Mar ? 02:02:49 10° E 02:04:46 13° NE 02:06:43 10° NNE visible
28 Mar ? 03:39:53 81° S 03:40:06 89° WSW 03:44:27 10° NNW visible
28 Mar ? 05:16:58 10° W 05:16:58 10° W 05:17:29 10° WNW visible
29 Mar ? 02:18:56 14° E 02:20:47 17° ENE 02:23:38 10° NNE visible
29 Mar ? 03:56:00 59° SW 03:56:21 62° WSW 04:00:38 10° NNW visible
30 Mar ? 02:35:02 18° E 02:36:51 23° ENE 02:40:16 10° N visible
30 Mar ? 04:12:07 41° WSW 04:12:37 42° W 04:16:45 10° NNW visible
